This demonstration page uses our WeatherBlox Daily Observations layout. Learn more.

Left ArrowRight Arrow

Hourly Observations for August 11, 2019

Temp ( °F °C ) Dew Point ( °F °C ) Humidity (%) Winds ( mph kmh ) Pressure ( in mb ) Visibility ( mi km ) Precip ( " mm )
12:59 am 00:59 Partly Cloudy 70 21.1 62 16.7 76 76 Calm 29.98 1015 10 16 0.00 0.00
1:59 am 01:59 Partly Cloudy 68 20 63 17.2 84 84 Calm 29.97 1015 10 16 0.00 0.00
2:59 am 02:59 Mostly Cloudy 70 21.1 64 17.8 82 82 Calm 29.95 1014 10 16 0.00 0.00
3:59 am 03:59 Mostly Cloudy 69 20.6 65 18.3 87 87 Calm 29.96 1015 10 16 0.00 0.00
4:59 am 04:59 Mostly Cloudy 69 20.6 64 17.8 84 84 Calm 29.98 1015 10 16 0.00 0.00
5:59 am 05:59 Mostly Cloudy 68 20 66 18.9 93 93 Calm 29.99 1016 10 16 0.00 0.00
6:59 am 06:59 Mostly Cloudy 70 21.1 67 19.4 90 90 Calm 30.02 1017 10 16 0.00 0.00
7:59 am 07:59 Mostly Cloudy 77 25 65 18.3 66 66 NW 6 9 30.03 1017 10 16 0.00 0.00
8:59 am 08:59 Mostly Cloudy 78 25.6 65 18.3 64 64 NNW 7 11 30.04 1017 10 16 0.00 0.00
9:59 am 09:59 Partly Cloudy 81 27.2 66 18.9 61 61 N 6 9 30.04 1017 10 16 0.00 0.00
10:59 am 10:59 Mostly Sunny 83 28.3 62 16.7 49 49 VRB 3 6 30.05 1018 10 16 0.00 0.00
11:59 am 11:59 Mostly Sunny 84 28.9 64 17.8 51 51 N 8 13 30.06 1018 10 16 0.00 0.00
12:59 pm 12:59 Partly Cloudy 85 29.4 59 15 42 42 ENE 6 9 30.05 1018 10 16 0.00 0.00
1:59 pm 13:59 Partly Cloudy 86 30 61 16.1 43 43 NNE 9 15 30.04 1017 10 16 0.00 0.00
2:59 pm 14:59 Partly Cloudy 86 30 61 16.1 43 43 NE 8 13 30.03 1017 10 16 0.00 0.00
3:59 pm 15:59 Partly Cloudy 84 28.9 61 16.1 46 46 ENE 9 15 30.02 1017 10 16 0.00 0.00
4:59 pm 16:59 Partly Cloudy 84 28.9 63 17.2 49 49 NE 8 13 30.02 1017 10 16 0.00 0.00
5:59 pm 17:59 Partly Cloudy 84 28.9 58 14.4 41 41 E 7 11 30.03 1017 10 16 0.00 0.00
6:59 pm 18:59 Partly Cloudy 83 28.3 64 17.8 53 53 E 5 7 30.01 1016 10 16 0.00 0.00
7:59 pm 19:59 Partly Cloudy 79 26.1 65 18.3 62 62 SSE 6 9 30.02 1017 10 16 0.00 0.00
8:59 pm 20:59 Mostly Clear 77 25 66 18.9 69 69 SSE 5 7 30.03 1017 10 16 0.00 0.00
9:59 pm 21:59 Clear 76 24.4 65 18.3 69 69 SE 5 7 30.04 1017 10 16 0.00 0.00
10:59 pm 22:59 Clear 71 21.7 65 18.3 81 81 Calm 30.04 1017 10 16 0.00 0.00
11:59 pm 23:59 Clear 70 21.1 65 18.3 84 84 Calm 30.04 1017 10 16 0.00 0.00

Powered by AerisWeather